Wind_Speed
11 15 15 15 20 17 16 15 16 20 22 22 21 21 22 25 23 23 24 23 21 19 23 27 28 33 38 39 39 39 41 37 36 36 33 33 33 36 41 44 46 47 47 48
10 14 17 20 17 16 18 18 19 22 21 21 21 22 20 17 17 15 14 15 17 20 23 26 30 35 37 38 41 40 43 38 38 38 37 36 39 40 45 45 45 46 47 47
11 11 15 16 17 16 19 20 25 22 20 20 21 19 18 16 12 13 14 17 18 20 23 28 32 34 38 39 42 43 40 39 38 38 35 36 39 42 43 43 45 46 48 49
11 14 16 17 17 18 19 20 19 19 18 20 17 14 13 14 15 18 20 19 18 21 27 31 33 37 38 42 43 40 38 36 35 34 33 35 37 39 41 43 44 46 47 48
14 16 17 18 18 17 12 13 15 17 16 20 17 15 15 16 19 21 20 22 24 29 33 34 36 39 39 39 38 35 35 32 31 33 36 36 37 39 40 42 43 46 47 49
14 16 16 18 17 11 9 13 15 17 18 17 16 15 15 18 21 20 22 25 29 33 35 35 35 35 36 34 32 33 33 34 35 36 36 37 37 38 39 41 43 46 48 50
13 15 15 16 14 11 11 13 17 19 18 18 16 16 20 21 18 19 23 26 29 31 32 32 32 33 32 31 32 34 35 34 33 34 36 39 41 43 45 46 47 47 48 51
12 13 14 15 15 14 15 16 18 19 15 15 18 18 17 16 19 22 24 26 28 27 29 28 30 32 32 33 34 34 33 34 36 39 44 45 47 49 50 50 51 51 50 51
12 11 13 14 13 13 15 16 16 15 15 15 15 16 17 20 21 23 26 26 26 26 27 29 31 33 35 36 35 36 36 36 41 43 47 50 52 54 54 55 54 54 54 53
8 8 10 12 12 13 14 15 18 19 20 18 18 20 20 23 24 26 28 27 24 24 25 28 33 37 37 37 37 38 36 41 48 50 53 54 56 57 56 56 56 55 52 51
6 7 8 10 11 15 18 23 25 26 25 24 24 23 28 29 29 31 30 26 24 25 30 35 36 41 38 38 38 40 42 47 50 54 56 59 61 59 58 57 55 53 51 50
9 11 11 12 15 18 21 23 26 27 27 25 25 24 28 33 36 34 29 24 26 29 32 36 39 38 38 40 41 45 48 52 55 59 61 60 61 61 60 59 57 53 50 51
13 14 16 18 21 23 26 26 29 30 29 26 27 28 34 36 35 32 26 26 31 32 36 35 35 37 39 42 45 48 53 56 60 60 60 63 65 65 64 60 56 52 50 50
16 19 22 25 28 29 28 29 30 31 30 28 27 33 34 34 30 25 26 30 32 35 35 38 37 36 41 45 49 52 56 60 57 59 64 64 66 63 59 56 54 51 49 45
24 27 30 32 33 34 33 33 32 33 32 30 30 33 32 26 23 26 29 32 33 34 36 36 37 37 43 48 51 54 56 57 58 64 62 64 62 57 55 54 50 47 43 42
30 32 33 38 40 39 35 32 33 32 32 31 30 31 27 25 28 31 30 32 35 36 33 32 35 40 44 48 51 53 55 58 64 60 61 57 55 53 50 47 45 45 42 36
34 36 39 41 39 38 35 33 32 31 29 30 30 29 27 28 29 31 32 36 36 33 31 34 38 42 46 49 51 52 56 61 60 58 56 56 53 51 51 52 49 43 39 35
40 39 37 37 37 37 34 32 32 30 29 30 30 28 26 24 30 34 34 32 32 31 32 36 40 43 46 49 50 52 57 60 58 55 55 55 52 52 55 50 46 40 37 31
34 32 32 34 35 36 34 33 33 31 27 29 26 24 25 29 34 34 33 33 32 32 35 38 42 45 47 48 50 53 58 56 53 52 54 51 52 56 51 48 44 39 30 21
32 32 32 34 37 37 34 32 32 29 24 25 25 25 28 31 32 33 33 30 30 33 36 40 43 46 48 49 51 54 57 54 52 52 50 50 56 51 49 45 40 29 19 9
31 33 33 33 35 35 32 32 29 28 27 23 24 25 28 31 33 29 27 28 30 34 38 41 44 46 47 47 50 55 56 52 50 49 45 50 50 47 47 40 29 22 17 15
31 32 32 33 33 34 30 29 28 27 24 23 23 26 28 28 25 25 28 29 32 35 39 41 43 45 46 48 51 56 52 49 46 43 43 49 43 43 42 34 30 25 22 19
34 33 34 34 34 34 33 31 28 27 25 25 26 25 25 21 23 25 27 30 33 37 39 41 43 45 47 48 52 54 49 45 41 37 40 42 36 33 32 31 28 24 22 19
34 33 35 36 33 31 29 26 24 24 21 21 23 22 18 21 21 25 29 33 34 37 39 41 44 46 47 49 53 50 47 38 36 34 39 34 31 27 25 26 24 21 19 18
30 32 32 31 28 26 24 22 20 19 17 18 17 17 19 19 23 27 31 34 36 38 39 41 44 47 47 48 51 46 40 32 31 30 38 28 26 24 24 23 21 19 17 17
21 23 25 22 20 19 18 18 17 17 16 15 16 17 19 23 26 30 33 36 39 39 39 41 45 46 47 50 46 41 33 30 27 27 35 24 22 21 21 20 19 18 17 17
Wind_Direction
211 235 253 263 269 266 253 267 280 290 290 301 305 305 305 308 311 308 301 300 299 297 310 317 322 325 327 327 324 326 328 327 324 323 318 315 306 299 302 302 302 301 303 303
219 235 247 267 272 254 264 268 283 287 293 298 299 302 310 308 308 309 307 299 291 297 307 313 315 317 320 320 318 319 321 319 325 321 315 311 306 303 304 305 305 306 306 306
233 248 249 258 267 281 281 290 295 295 298 301 304 307 310 320 328 329 308 295 296 307 312 311 312 314 317 313 313 316 317 318 321 315 311 307 309 308 307 307 308 309 309 308
240 248 251 265 281 291 295 296 301 304 304 314 314 314 322 325 322 323 318 308 308 310 311 310 313 312 308 310 316 318 322 321 317 315 313 313 311 311 311 312 313 310 308 306
245 252 265 279 291 303 294 298 310 316 312 314 319 326 330 328 322 318 311 306 304 311 314 312 310 307 310 313 318 324 321 322 325 322 320 318 317 316 317 317 315 311 309 308
247 254 265 281 295 296 297 299 307 325 323 313 312 316 326 323 319 316 310 308 309 310 309 307 308 313 322 327 325 323 326 327 326 320 321 325 326 325 325 324 322 319 317 314
254 268 281 293 306 303 296 303 313 310 312 309 313 317 315 318 318 315 311 313 311 308 306 310 322 330 333 334 329 329 329 326 324 329 331 331 330 328 325 325 326 327 323 317
262 275 287 295 302 307 302 308 313 312 315 310 312 314 317 319 322 320 316 312 309 310 311 322 333 335 334 330 328 329 327 327 330 331 330 330 327 325 324 325 323 321 322 320
258 271 285 295 310 309 317 313 312 311 314 316 322 328 332 328 326 329 330 327 318 315 321 325 326 329 326 323 324 324 326 333 333 329 328 328 327 324 322 320 318 317 318 318
264 276 277 291 303 312 319 323 325 328 327 322 325 329 330 331 330 331 328 328 322 316 323 323 327 324 322 320 323 322 322 323 326 325 325 323 322 319 315 314 315 314 315 314
277 301 294 304 313 312 315 322 325 329 330 326 323 333 329 333 331 329 326 323 320 314 317 317 317 321 317 318 321 325 324 323 322 323 322 319 319 315 313 313 313 312 313 311
259 284 293 295 306 307 308 310 311 314 318 316 317 331 326 328 326 325 319 317 319 321 323 322 317 314 317 321 326 322 322 323 324 323 323 319 318 316 315 313 312 312 311 311
272 281 291 295 300 306 310 312 315 316 315 319 317 324 322 322 320 314 310 315 321 318 320 318 316 318 322 324 323 323 326 326 324 323 321 317 317 314 313 311 308 310 310 312
289 294 297 298 301 305 308 310 309 309 311 309 310 313 316 316 313 309 310 309 310 309 311 311 317 318 325 324 324 327 326 326 324 322 320 321 320 319 318 315 312 311 311 316
290 293 294 296 300 301 303 306 307 309 310 308 308 309 313 312 306 307 311 313 315 314 314 316 319 322 324 324 327 326 324 323 324 326 324 324 322 322 324 323 321 319 318 316
280 286 292 296 298 298 300 304 305 307 308 309 311 314 315 309 312 313 315 316 315 315 321 326 328 326 324 325 325 325 325 327 330 327 326 326 328 329 329 327 324 319 317 317
285 288 289 290 292 295 300 303 303 304 308 310 311 310 307 307 306 308 312 311 315 320 323 327 327 325 325 323 326 327 329 331 330 327 328 331 331 331 331 329 326 322 319 318
279 279 281 281 285 287 293 296 298 300 307 306 305 304 300 299 301 308 313 312 318 322 326 325 324 322 322 327 328 331 332 332 330 329 330 333 332 333 332 329 327 327 325 319
272 273 276 279 279 283 288 294 297 298 306 302 302 299 294 296 300 305 310 310 318 323 322 321 321 323 327 329 331 333 332 331 330 331 336 334 335 337 335 333 329 326 321 317
271 272 273 273 276 282 292 297 298 301 300 295 296 293 292 296 302 308 311 314 320 319 319 319 321 325 329 331 333 332 334 332 332 337 339 337 342 341 339 339 337 338 343 1
274 277 282 288 292 296 302 302 301 300 298 298 295 294 296 300 307 311 314 318 318 318 318 320 323 328 330 328 333 335 336 333 337 342 340 344 348 347 351 355 5 21 43 74
282 284 286 289 291 294 297 299 300 302 300 297 296 297 299 306 309 312 316 313 313 318 318 320 326 328 328 331 335 337 336 335 340 343 345 350 354 357 4 15 30 44 55 69
284 288 291 293 295 298 298 299 298 297 299 301 299 300 304 304 308 315 309 309 317 316 317 324 327 329 329 335 337 338 336 337 341 344 350 354 358 5 12 24 35 48 62 72
284 290 291 291 297 299 303 301 298 298 297 295 293 296 298 305 314 311 316 316 318 318 324 327 329 330 333 336 337 337 338 340 344 346 353 356 360 6 13 20 31 47 59 68
284 282 284 289 296 301 303 302 296 294 294 290 291 294 302 314 314 314 314 320 322 324 328 328 329 332 335 337 336 335 339 343 346 349 353 357 2 10 17 29 43 55 63 73
273 279 281 290 298 304 307 305 303 299 294 292 292 302 313 312 310 315 318 321 323 326 328 328 330 334 337 337 336 337 341 343 347 352 354 358 5 16 25 37 47 55 62 71
Height
5925 5926 5927 5928 5930 5930 5930 5929 5928 5927 5925 5923 5922 5920 5920 5918 5917 5915 5913 5909 5907 5904 5901 5897 5893 5889 5884 5879 5875 5871 5867 5862 5857 5852 5848 5844 5840 5836 5829 5824 5819 5814 5808 5802
5924 5925 5926 5927 5928 5929 5928 5927 5925 5924 5923 5921 5919 5918 5916 5915 5913 5911 5908 5906 5904 5901 5897 5894 5889 5885 5880 5875 5871 5866 5862 5857 5852 5847 5842 5838 5833 5829 5823 5817 5810 5804 5797 5789
5922 5925 5925 5926 5926 5927 5925 5925 5923 5921 5919 5917 5915 5914 5912 5911 5908 5907 5905 5902 5900 5897 5893 5889 5885 5881 5876 5870 5865 5861 5857 5851 5846 5841 5837 5833 5827 5821 5815 5807 5799 5790 5783 5776
5922 5923 5924 5924 5924 5924 5923 5922 5919 5917 5915 5913 5912 5912 5909 5907 5905 5902 5900 5897 5896 5893 5889 5884 5881 5876 5870 5865 5861 5856 5850 5844 5839 5835 5829 5825 5818 5811 5804 5796 5788 5780 5772 5765
5922 5922 5922 5922 5922 5921 5921 5918 5916 5913 5912 5910 5908 5907 5905 5904 5901 5899 5896 5893 5891 5888 5884 5879 5875 5869 5865 5861 5856 5849 5844 5839 5833 5828 5822 5815 5808 5800 5792 5784 5777 5770 5762 5754
5920 5920 5920 5920 5919 5919 5917 5914 5913 5911 5909 5907 5905 5905 5903 5901 5899 5896 5893 5890 5886 5883 5878 5873 5869 5864 5860 5854 5849 5843 5837 5831 5825 5819 5813 5806 5798 5790 5783 5776 5768 5759 5750 5742
5918 5918 5917 5917 5917 5915 5914 5912 5911 5910 5907 5905 5903 5903 5900 5898 5895 5893 5889 5886 5882 5877 5872 5867 5863 5858 5854 5849 5843 5837 5831 5825 5818 5812 5805 5797 5790 5783 5775 5767 5757 5748 5740 5732
5916 5916 5915 5914 5914 5912 5911 5910 5908 5905 5905 5904 5901 5900 5897 5895 5892 5889 5886 5882 5877 5872 5867 5863 5857 5853 5848 5843 5836 5830 5824 5817 5811 5804 5797 5790 5783 5774 5765 5755 5747 5739 5730 5721
5912 5912 5912 5910 5911 5910 5909 5907 5906 5904 5903 5900 5898 5897 5894 5891 5888 5885 5881 5876 5871 5866 5861 5857 5852 5848 5842 5837 5830 5823 5817 5811 5804 5797 5789 5780 5772 5763 5754 5745 5736 5728 5718 5710
5909 5910 5909 5909 5908 5908 5907 5905 5903 5900 5899 5897 5895 5892 5890 5887 5884 5880 5876 5871 5866 5862 5857 5852 5848 5842 5836 5830 5824 5818 5811 5804 5796 5788 5779 5770 5761 5752 5743 5733 5724 5715 5706 5698
5906 5907 5908 5907 5906 5905 5904 5901 5899 5897 5895 5892 5890 5890 5884 5881 5878 5875 5870 5865 5861 5857 5852 5847 5841 5836 5829 5823 5817 5811 5803 5796 5788 5779 5769 5759 5750 5739 5729 5719 5710 5702 5694 5686
5905 5905 5905 5905 5903 5902 5900 5898 5896 5894 5892 5889 5886 5886 5880 5876 5871 5867 5863 5859 5855 5850 5845 5840 5835 5829 5823 5816 5809 5802 5795 5787 5778 5768 5758 5747 5736 5726 5716 5707 5697 5689 5681 5673
5902 5902 5902 5901 5901 5898 5896 5894 5891 5889 5886 5884 5881 5880 5875 5871 5866 5862 5858 5854 5849 5844 5839 5834 5828 5822 5816 5809 5802 5795 5787 5777 5768 5757 5746 5735 5724 5713 5702 5692 5683 5676 5669 5662
5898 5898 5897 5897 5896 5894 5892 5890 5887 5884 5881 5879 5878 5874 5871 5866 5860 5856 5853 5849 5844 5839 5834 5828 5822 5816 5810 5802 5795 5787 5777 5769 5758 5747 5735 5722 5710 5699 5688 5678 5670 5664 5657 5650
5894 5893 5892 5891 5890 5888 5887 5884 5881 5878 5876 5874 5872 5868 5864 5860 5856 5851 5847 5842 5837 5832 5827 5822 5816 5810 5803 5795 5787 5779 5771 5760 5749 5736 5722 5710 5698 5687 5678 5668 5659 5652 5646 5639
5889 5887 5886 5884 5882 5880 5879 5879 5876 5873 5870 5867 5864 5860 5856 5853 5848 5844 5840 5835 5830 5825 5821 5816 5810 5804 5797 5788 5781 5772 5762 5750 5737 5724 5712 5700 5690 5679 5668 5658 5650 5642 5634 5628
5883 5882 5879 5877 5875 5873 5873 5871 5868 5866 5863 5860 5857 5854 5850 5846 5841 5837 5835 5830 5824 5820 5816 5810 5804 5797 5789 5782 5774 5764 5752 5740 5728 5716 5703 5693 5682 5670 5659 5649 5639 5630 5623 5617
5877 5875 5873 5871 5869 5867 5867 5865 5862 5860 5858 5854 5851 5848 5844 5840 5835 5833 5829 5824 5819 5815 5810 5804 5798 5791 5783 5776 5766 5755 5744 5732 5720 5708 5697 5685 5673 5661 5650 5638 5628 5619 5613 5607
5868 5867 5866 5864 5862 5860 5861 5859 5857 5854 5855 5848 5845 5842 5838 5835 5830 5827 5823 5818 5815 5810 5804 5798 5791 5784 5777 5768 5758 5748 5736 5725 5713 5701 5691 5679 5667 5654 5640 5629 5618 5609 5602 5599
5861 5860 5859 5857 5855 5854 5855 5853 5850 5848 5847 5843 5839 5836 5833 5829 5826 5822 5817 5814 5809 5804 5798 5792 5785 5778 5770 5760 5751 5741 5730 5718 5706 5696 5685 5674 5662 5647 5634 5621 5609 5601 5596 5595
5852 5851 5851 5849 5847 5847 5847 5844 5842 5841 5841 5836 5833 5830 5827 5823 5820 5816 5812 5808 5804 5799 5792 5785 5778 5771 5762 5754 5745 5734 5723 5712 5702 5692 5682 5671 5658 5645 5632 5619 5607 5601 5598 5597
5845 5844 5843 5842 5840 5839 5839 5838 5837 5835 5831 5828 5826 5823 5820 5818 5814 5811 5808 5803 5799 5793 5787 5779 5773 5765 5756 5748 5738 5728 5717 5708 5699 5690 5681 5670 5659 5648 5637 5626 5616 5610 5608 5606
5836 5836 5835 5834 5833 5831 5831 5830 5829 5826 5824 5822 5820 5816 5814 5812 5810 5807 5803 5798 5794 5787 5780 5774 5767 5759 5751 5742 5732 5722 5712 5705 5697 5688 5680 5671 5662 5653 5645 5636 5628 5622 5619 5617
5829 5828 5826 5824 5826 5824 5822 5821 5820 5818 5817 5816 5814 5812 5810 5809 5806 5802 5797 5792 5788 5781 5775 5768 5761 5753 5745 5736 5727 5718 5709 5702 5695 5688 5680 5672 5665 5657 5650 5644 5638 5633 5629 5627
5823 5819 5818 5819 5818 5817 5816 5815 5814 5813 5811 5810 5808 5807 5806 5804 5800 5797 5792 5786 5781 5774 5769 5762 5755 5747 5739 5730 5722 5713 5706 5700 5693 5687 5680 5674 5668 5661 5655 5649 5645 5641 5638 5635
5814 5814 5812 5813 5813 5812 5811 5810 5809 5808 5807 5806 5804 5803 5802 5799 5796 5791 5785 5780 5774 5769 5764 5756 5749 5742 5734 5725 5716 5709 5704 5698 5692 5687 5681 5676 5670 5664 5659 5655 5651 5648 5645 5643